FW1130 Weather Reports


time (UTC)temp
C
wind
direction
speed
KPH
gust
KPH
rain 1hr
cm
rain 24hr
cm
rain mn
cm
humidity
%
barometer
mb
20260506032828 16 172 0.0 0.0 0.00 0.00 0.00 72 1012.1
20260506032349 16 172 0.0 0.0 0.00 0.00 0.00 72 1012.1
20260506031824 16 172 0.0 0.0 0.00 0.00 0.00 72 1012.0
20260506031326 17 172 0.0 0.0 0.00 0.00 0.00 71 1011.9
20260506030837 17 172 0.0 0.0 0.00 0.00 0.00 71 1011.9
20260506030327 17 172 0.0 0.0 0.00 0.00 0.00 71 1011.9
20260506025831 17 172 0.0 0.0 0.00 0.00 0.00 71 1011.9
20260506025342 17 228 0.0 0.0 0.00 0.00 0.00 71 1011.9
20260506024832 17 228 0.0 0.0 0.00 0.00 0.00 71 1011.9
20260506024339 17 228 0.0 0.0 0.00 0.00 0.00 70 1011.9
20260506023844 17 228 0.0 0.0 0.00 0.00 0.00 70 1011.8
20260506023352 17 263 0.0 0.0 0.00 0.00 0.00 70 1011.8
20260506022834 17 243 0.0 0.0 0.00 0.00 0.00 70 1011.8
20260506022326 17 241 0.0 0.0 0.00 0.00 0.00 70 1011.8
20260506021834 17 304 0.0 0.0 0.00 0.00 0.00 70 1011.8
20260506021325 17 307 0.0 0.0 0.00 0.00 0.00 70 1011.9
20260506020857 17 354 0.0 0.0 0.00 0.00 0.00 70 1011.9
20260506020333 17 217 0.0 0.0 0.00 0.00 0.00 69 1011.9
20260506015825 17 216 0.0 0.0 0.00 0.00 0.00 69 1011.9
20260506015350 17 247 0.0 0.0 0.00 0.00 0.00 68 1011.9
20260506014842 18 247 0.0 0.0 0.00 0.00 0.00 68 1011.9
20260506014341 18 233 0.0 0.0 0.00 0.00 0.00 67 1011.9
20260506013832 18 242 0.0 0.0 0.00 0.00 0.00 68 1011.9
20260506013352 18 197 0.0 0.0 0.00 0.00 0.00 68 1011.9
20260506012846 18 218 0.0 0.0 0.00 0.00 0.00 68 1011.9
20260506012330 18 252 0.0 0.0 0.00 0.00 0.00 68 1011.9
20260506011836 18 262 0.0 0.0 0.00 0.00 0.00 68 1011.9
20260506011334 18 241 0.0 0.0 0.00 0.00 0.00 68 1011.9
20260506010833 18 198 0.0 0.0 0.00 0.00 0.00 68 1012.0
20260506010348 18 243 0.0 0.0 0.00 0.00 0.00 67 1012.1
20260506005842 18 192 0.0 0.0 0.00 0.00 0.00 67 1012.1
20260506005331 18 174 0.0 9.7 0.00 0.00 0.00 67 1012.1
20260506004901 18 228 1.6 9.7 0.00 0.00 0.00 66 1012.0
20260506004345 19 247 0.0 3.2 0.00 0.00 0.00 66 1012.0
20260506003841 19 235 0.0 3.2 0.00 0.00 0.00 66 1012.0
20260506003349 18 272 0.0 8.0 0.00 0.00 0.00 66 1012.0
20260506002831 19 210 0.0 8.0 0.00 0.00 0.00 65 1011.9
20260506002338 19 201 0.0 1.6 0.00 0.00 0.00 66 1012.0
20260506001842 19 254 0.0 1.6 0.00 0.00 0.00 66 1011.9
20260506001327 19 266 0.0 1.6 0.00 0.00 0.00 66 1012.0
20260506000840 19 293 0.0 0.0 0.00 0.00 0.00 65 1012.0
20260506000348 19 233 0.0 1.6 0.00 0.00 0.00 64 1012.0
20260505235839 20 224 0.0 1.6 0.00 0.00 0.00 64 1012.1
20260505235330 18 251 0.0 1.6 0.00 0.00 0.00 65 1012.1
20260505234828 19 236 0.0 3.2 0.00 0.00 0.00 64 1012.2
20260505234325 20 223 0.0 12.9 0.00 0.00 0.00 64 1012.2
20260505233828 20 212 0.0 12.9 0.00 0.00 0.00 63 1012.2
20260505233330 20 223 0.0 0.0 0.00 0.00 0.00 65 1012.3
20260505232848 20 130 0.0 0.0 0.00 0.00 0.00 65 1012.3
20260505232330 20 152 0.0 0.0 0.00 0.00 0.00 66 1012.4
20260505231832 19 228 0.0 0.0 0.00 0.00 0.00 64 1012.5
20260505231342 19 222 0.0 0.0 0.00 0.00 0.00 65 1012.5
20260505230831 19 233 0.0 0.0 0.00 0.00 0.00 67 1012.6
20260505230324 20 238 0.0 1.6 0.00 0.00 0.00 63 1012.7
20260505225854 20 234 0.0 3.2 0.00 0.00 0.00 64 1012.7
20260505225334 20 220 0.0 3.2 0.00 0.00 0.00 66 1012.7
20260505224823 19 210 0.0 4.8 0.00 0.00 0.00 64 1012.8
20260505224339 19 233 0.0 1.6 0.00 0.00 0.00 67 1012.8
20260505223835 19 222 0.0 3.2 0.00 0.00 0.00 64 1012.8
20260505223333 20 147 0.0 3.2 0.00 0.00 0.00 66 1012.7
20260505222841 19 254 0.0 1.6 0.00 0.00 0.00 66 1012.8
20260505222324 18 196 0.0 1.6 0.00 0.00 0.00 66 1012.8
20260505221834 19 162 0.0 1.6 0.00 0.00 0.00 67 1012.9
20260505221330 19 122 0.0 0.0 0.00 0.00 0.00 67 1012.9
20260505220841 18 137 0.0 0.0 0.00 0.00 0.00 66 1013.0
20260505220338 19 183 0.0 0.0 0.00 0.00 0.00 66 1013.0
20260505215838 20 197 0.0 0.0 0.00 0.00 0.00 65 1013.0
20260505215325 19 168 0.0 0.0 0.00 0.00 0.00 66 1013.0
20260505214827 19 208 0.0 0.0 0.00 0.00 0.00 66 1013.0
20260505214324 18 264 0.0 1.6 0.00 0.00 0.00 67 1013.1
20260505213849 18 204 0.0 4.8 0.00 0.00 0.00 67 1013.0
20260505213335 19 167 0.0 4.8 0.00 0.00 0.00 66 1013.1
20260505212830 18 180 0.0 1.6 0.00 0.00 0.00 67 1013.1
20260505212347 18 272 0.0 12.9 0.00 0.00 0.00 67 1013.1
20260505211826 18 203 0.0 12.9 0.00 0.00 0.00 66 1013.1
20260505211325 18 247 0.0 1.6 0.00 0.00 0.00 67 1013.1
20260505210848 19 240 0.0 8.0 0.00 0.00 0.00 65 1013.2
20260505210342 19 191 0.0 1.6 0.00 0.00 0.00 67 1013.2
20260505205851 18 202 0.0 0.0 0.00 0.00 0.00 66 1013.2
20260505205326 19 235 0.0 0.0 0.00 0.00 0.00 66 1013.3
20260505204841 18 125 0.0 0.0 0.00 0.00 0.00 67 1013.4
20260505204325 18 174 0.0 1.6 0.00 0.00 0.00 68 1013.4
20260505203826 18 227 0.0 1.6 0.00 0.00 0.00 66 1013.4
20260505203335 18 192 0.0 3.2 0.00 0.00 0.00 68 1013.4
20260505202829 18 231 0.0 3.2 0.00 0.00 0.00 68 1013.4
20260505202346 18 209 0.0 1.6 0.00 0.00 0.00 69 1013.5
20260505201830 18 217 0.0 1.6 0.00 0.00 0.00 68 1013.4
20260505201349 18 198 0.0 0.0 0.00 0.00 0.00 70 1013.4
20260505200823 18 234 0.0 11.3 0.00 0.00 0.00 71 1013.4
20260505200342 18 237 0.0 11.3 0.00 0.00 0.00 69 1013.4
20260505195842 18 145 0.0 0.0 0.00 0.00 0.00 70 1013.5
20260505195326 17 241 0.0 0.0 0.00 0.00 0.00 70 1013.5
20260505194830 18 219 0.0 1.6 0.00 0.00 0.00 67 1013.6
20260505194325 18 197 0.0 3.2 0.00 0.00 0.00 70 1013.6
20260505193839 18 255 0.0 9.7 0.00 0.00 0.00 70 1013.6
20260505193410 17 204 0.0 9.7 0.00 0.00 0.00 70 1013.6
20260505192822 17 247 0.0 1.6 0.00 0.00 0.00 70 1013.7
20260505192338 17 236 0.0 1.6 0.00 0.00 0.00 72 1013.6
20260505191844 17 226 0.0 1.6 0.00 0.00 0.00 71 1013.6
20260505191337 17 229 0.0 1.6 0.00 0.00 0.00 72 1013.7
20260505190902 17 115 0.0 1.6 0.00 0.00 0.00 73 1013.7
20260505190339 17 201 0.0 1.6 0.00 0.00 0.00 74 1013.6
20260505185845 17 174 0.0 0.0 0.00 0.00 0.00 76 1013.7
20260505185358 16 239 0.0 1.6 0.00 0.00 0.00 76 1013.7
20260505184903 16 133 0.0 8.0 0.00 0.00 0.00 77 1013.7
20260505184330 16 221 0.0 8.0 0.00 0.00 0.00 76 1013.7
20260505183851 16 197 0.0 0.0 0.00 0.00 0.00 76 1013.8
20260505183337 17 220 0.0 11.3 0.00 0.00 0.00 76 1013.7
20260505182844 16 244 1.6 11.3 0.00 0.00 0.00 75 1013.7
20260505182330 17 290 0.0 6.4 0.00 0.00 0.00 75 1013.7
20260505181842 17 199 0.0 1.6 0.00 0.00 0.00 75 1013.6
20260505181352 17 289 0.0 0.0 0.00 0.00 0.00 76 1013.5
20260505180825 16 151 0.0 0.0 0.00 0.00 0.00 75 1013.4
20260505180332 17 227 0.0 3.2 0.00 0.00 0.00 75 1013.4
20260505175832 17 211 0.0 3.2 0.00 0.00 0.00 75 1013.5
20260505175331 16 121 0.0 0.0 0.00 0.00 0.00 75 1013.5
20260505174841 17 249 0.0 0.0 0.00 0.00 0.00 76 1013.5
20260505174323 16 233 0.0 0.0 0.00 0.00 0.00 75 1013.5
20260505173828 16 246 0.0 0.0 0.00 0.00 0.00 75 1013.5
20260505173336 16 149 0.0 1.6 0.00 0.00 0.00 76 1013.5
20260505172840 16 249 0.0 1.6 0.00 0.00 0.00 75 1013.6
20260505172324 16 129 0.0 1.6 0.00 0.00 0.00 75 1013.5
20260505171846 16 201 0.0 0.0 0.00 0.00 0.00 75 1013.5
20260505171330 16 214 0.0 0.0 0.00 0.00 0.00 76 1013.5
20260505170856 16 227 0.0 0.0 0.00 0.00 0.00 76 1013.4
20260505170326 16 171 0.0 0.0 0.00 0.00 0.00 76 1013.6
20260505165828 16 140 0.0 0.0 0.00 0.00 0.00 77 1013.5
20260505165329 16 157 0.0 6.4 0.00 0.00 0.00 76 1013.6
20260505164826 16 239 0.0 6.4 0.00 0.00 0.00 77 1013.6
20260505164330 16 187 0.0 0.0 0.00 0.00 0.00 77 1013.5
20260505163841 16 204 0.0 0.0 0.00 0.00 0.00 76 1013.6
20260505163324 16 77 0.0 0.0 0.00 0.00 0.00 76 1013.5
20260505162828 16 145 0.0 0.0 0.00 0.00 0.00 77 1013.5
20260505162348 16 137 0.0 0.0 0.00 0.00 0.00 77 1013.4
20260505161834 16 156 0.0 0.0 0.00 0.00 0.00 77 1013.4
20260505161342 16 77 0.0 0.0 0.00 0.00 0.00 77 1013.4
20260505160842 16 102 0.0 1.6 0.00 0.00 0.00 77 1013.4
20260505160328 16 81 0.0 1.6 0.00 0.00 0.00 76 1013.4
20260505153345 15 77 0.0 0.0 0.00 0.00 0.00 77 1013.3
20260505152825 15 77 0.0 0.0 0.00 0.00 0.00 77 1013.3
20260505152341 15 73 0.0 0.0 0.00 0.00 0.00 78 1013.3
20260505151826 15 73 0.0 0.0 0.00 0.00 0.00 78 1013.2
20260505151332 15 73 0.0 0.0 0.00 0.00 0.00 77 1013.2
20260505150855 15 139 0.0 0.0 0.00 0.00 0.00 78 1013.2
20260505150340 15 213 0.0 0.0 0.00 0.00 0.00 78 1013.2
20260505140353 13 168 0.0 0.0 0.00 0.00 0.00 82 1012.5
20260505124843 12 145 0.0 0.0 0.00 0.00 0.00 81 1011.5
20260505124331 12 145 0.0 0.0 0.00 0.00 0.00 81 1011.4
20260505123827 12 145 0.0 0.0 0.00 0.00 0.00 80 1011.4
20260505123340 12 145 0.0 0.0 0.00 0.00 0.00 80 1011.3
20260505122829 13 145 0.0 0.0 0.00 0.00 0.00 79 1011.3
20260505122335 13 145 0.0 0.0 0.00 0.00 0.00 79 1011.3
20260505121851 13 145 0.0 0.0 0.00 0.00 0.00 78 1011.4
20260505121327 13 145 0.0 1.6 0.00 0.00 0.00 78 1011.3
20260505120831 13 156 0.0 1.6 0.00 0.00 0.00 78 1011.2
20260505120325 13 143 0.0 0.0 0.00 0.00 0.00 78 1011.1
20260505115827 13 143 0.0 0.0 0.00 0.00 0.00 78 1011.1
20260505115332 13 143 0.0 0.0 0.00 0.00 0.00 77 1011.0
20260505114856 13 143 0.0 0.0 0.00 0.00 0.00 77 1011.0
20260505114339 13 143 0.0 0.0 0.00 0.00 0.00 77 1010.9
20260505113828 13 143 0.0 0.0 0.00 0.00 0.00 76 1010.8
20260505113352 13 143 0.0 0.0 0.00 0.00 0.00 76 1010.8
20260505112834 13 143 0.0 0.0 0.00 0.00 0.00 76 1010.7
20260505112324 13 143 0.0 0.0 0.00 0.00 0.00 76 1010.6
20260505111833 13 143 0.0 0.0 0.00 0.00 0.00 76 1010.5
20260505111326 13 143 0.0 0.0 0.00 0.00 0.00 76 1010.5
20260505110840 13 143 0.0 0.0 0.00 0.00 0.00 76 1010.5
20260505110332 13 143 0.0 0.0 0.00 0.00 0.00 76 1010.5
20260505101851 14 143 0.0 0.0 0.00 0.00 0.00 77 1010.1
20260505101335 14 143 0.0 0.0 0.00 0.00 0.00 78 1010.0
20260505100823 14 143 0.0 0.0 0.00 0.00 0.00 79 1009.9
20260505100336 13 143 0.0 0.0 0.00 0.00 0.00 80 1009.8
20260505095827 13 143 0.0 0.0 0.00 0.00 0.00 81 1009.7
20260505095343 13 143 0.0 0.0 0.00 0.00 0.00 82 1009.7
20260505094828 13 143 0.0 0.0 0.00 0.00 0.00 83 1009.7
20260505094329 13 143 0.0 0.0 0.00 0.00 0.00 83 1009.7
20260505093841 13 143 0.0 0.0 0.00 0.00 0.00 83 1009.6
20260505093338 13 143 0.0 0.0 0.00 0.00 0.00 83 1009.5
20260505092840 14 143 0.0 0.0 0.00 0.00 0.00 83 1009.4
20260505092348 14 143 0.0 0.0 0.00 0.00 0.00 83 1009.4
20260505091824 14 143 0.0 0.0 0.00 0.00 0.00 82 1009.3
20260505091331 14 143 0.0 0.0 0.00 0.00 0.00 82 1009.2
20260505090823 14 143 0.0 0.0 0.00 0.00 0.00 82 1009.2
20260505090326 14 143 0.0 0.0 0.00 0.00 0.00 82 1009.2
20260505085827 14 143 0.0 0.0 0.00 0.00 0.00 81 1009.1
20260505085330 14 143 0.0 0.0 0.00 0.00 0.00 81 1009.0
20260505084831 15 143 0.0 0.0 0.00 0.00 0.00 81 1008.9
20260505084326 15 143 0.0 0.0 0.00 0.00 0.00 80 1008.9
20260505083837 15 143 0.0 0.0 0.00 0.00 0.00 80 1008.8
20260505083326 15 143 0.0 0.0 0.00 0.00 0.00 80 1008.8
20260505082834 15 143 0.0 0.0 0.00 0.00 0.00 80 1008.8
20260505082335 15 143 0.0 0.0 0.00 0.00 0.00 79 1008.7
20260505081839 15 143 0.0 0.0 0.00 0.00 0.00 79 1008.6
20260505081337 15 143 0.0 0.0 0.00 0.00 0.00 78 1008.6
20260505080825 15 143 0.0 0.0 0.00 0.00 0.00 78 1008.6
20260505080335 15 143 0.0 0.0 0.00 0.00 0.00 78 1008.5
20260505075827 15 143 0.0 0.0 0.00 0.00 0.00 78 1008.5
20260505075336 15 143 0.0 0.0 0.00 0.00 0.00 77 1008.5
20260505074828 15 143 0.0 0.0 0.00 0.00 0.00 77 1008.4
20260505074325 15 143 0.0 0.0 0.00 0.00 0.00 77 1008.4
20260505073825 15 143 0.0 0.0 0.00 0.00 0.00 77 1008.3
20260505073329 16 143 0.0 0.0 0.00 0.00 0.00 76 1008.2
20260505072840 16 143 0.0 0.0 0.00 0.00 0.00 76 1008.1
20260505072323 16 143 0.0 0.0 0.00 0.00 0.00 75 1008.1
20260505071828 16 143 0.0 0.0 0.00 0.00 0.00 75 1008.0
20260505071328 16 143 0.0 0.0 0.00 0.00 0.00 75 1007.9
20260505070837 16 143 0.0 0.0 0.00 0.00 0.00 74 1007.8
20260505070337 16 143 0.0 0.0 0.00 0.00 0.00 74 1007.7
20260505065837 16 143 0.0 0.0 0.00 0.00 0.00 73 1007.6
20260505065327 16 143 0.0 0.0 0.00 0.00 0.00 73 1007.7
20260505064353 16 143 0.0 0.0 0.00 0.00 0.00 72 1007.6
20260505063845 16 143 0.0 0.0 0.00 0.00 0.00 72 1007.6
20260505063341 17 143 0.0 0.0 0.00 0.00 0.00 71 1007.5
20260505062830 17 143 0.0 0.0 0.00 0.00 0.00 71 1007.5
20260505062332 17 143 0.0 0.0 0.00 0.00 0.00 70 1007.5
20260505061840 17 143 0.0 0.0 0.00 0.00 0.00 70 1007.5
20260505061331 17 143 0.0 0.0 0.00 0.00 0.00 70 1007.4
20260505060830 17 143 0.0 0.0 0.00 0.00 0.00 69 1007.4
20260505060333 17 143 0.0 0.0 0.00 0.00 0.00 69 1007.3
20260505055836 17 143 0.0 0.0 0.00 0.00 0.00 69 1007.3
20260505055335 17 143 0.0 0.0 0.00 0.00 0.00 68 1007.3
20260505054854 17 143 0.0 0.0 0.00 0.00 0.00 68 1007.3
20260505054335 17 143 0.0 0.0 0.00 0.00 0.00 68 1007.3
20260505053833 17 143 0.0 0.0 0.00 0.00 0.00 68 1007.3
20260505053335 18 143 0.0 0.0 0.00 0.00 0.00 67 1007.3
20260505052846 18 143 0.0 0.0 0.00 0.00 0.00 67 1007.3
20260505052331 18 143 0.0 0.0 0.00 0.00 0.00 66 1007.2
20260505051841 18 143 0.0 0.0 0.00 0.00 0.00 66 1007.1
20260505051339 18 143 0.0 0.0 0.00 0.00 0.00 65 1007.1
20260505050839 18 143 0.0 0.0 0.00 0.00 0.00 65 1007.0
20260505050347 18 143 0.0 0.0 0.00 0.00 0.00 65 1007.0
20260505041341 20 143 0.0 0.0 0.00 0.00 0.00 58 1006.5
20260505040824 21 143 0.0 0.0 0.00 0.00 0.00 58 1006.5
20260505040322 21 143 0.0 0.0 0.00 0.00 0.00 57 1006.5
20260505035827 21 143 0.0 0.0 0.00 0.00 0.00 56 1006.4
20260505035325 21 143 0.0 0.0 0.00 0.00 0.00 55 1006.4
20260505034824 21 143 0.0 0.0 0.00 0.00 0.00 54 1006.3
20260505034338 21 143 0.0 0.0 0.00 0.00 0.00 54 1006.2
20260505033836 22 143 0.0 0.0 0.00 0.00 0.00 53 1006.2
20260505033329 22 143 0.0 0.0 0.00 0.00 0.00 51 1006.2